Tracking 28790 objects as of 18-Apr-2024
HD Live streaming from Space Station
objects crossing your sky now

COSMOS 2251 DEB

Track COSMOS 2251 DEB now!
10-day predictions


NORAD ID: 34055
Int'l Code: 1993-036JS
Perigee: 544.2 km
Apogee: 608.0 km
Inclination: 74.1 °
Period: 96.0 minutes
Semi major axis: 6947 km
RCS: 0.046 m2 (small)
Launch date: June 16, 1993
Source: Commonwealth of Independent States (former USSR) (CIS)
Launch site: PLESETSK MISSILE AND SPACE COMPLEX (PKMTR)

Note: This is SATELLITE DEBRIS
Your satellite tracking list
Your tracking list is empty




NASA's NSSDC Master Catalog

Two Line Element Set (TLE):
1 34055U 93036JS  24109.08294760  .00085817  00000-0  67889-2 0  9999
2 34055  74.1013   4.4744 0045940 124.0332 358.2154 14.99336732806330
Source of the keplerian elements: AFSPC